Needles, CA

5:25 AM PDT on August 20, 2017 (GMT -0700)
Needles

Weather History for KEED - July, 2013

Change the Weather History Date:

Saturday, July 27, 2013

  Actual Average Record
Temperature  
Mean Temperature 95 °F 97 °F  
Max Temperature 107 °F 109 °F 119 °F (2016)
Min Temperature 84 °F 85 °F 65 °F (1909)
Degree Days  
Heating Degree Days 0    
Cooling Degree Days 30    
Growing Degree Days 45 (Base 50)    
Moisture  
Dew Point 64 °F    
Average Humidity 36    
Maximum Humidity 53    
Minimum Humidity 21    
Precipitation  
Precipitation 0.00 in 0.00 in 0.80 in (1939)
Month to date precipitation 0.13  
Year to date precipitation 2.51  
Sea Level Pressure  
Sea Level Pressure 29.75 in    
Wind  
Wind Speed 8 mph (NNE)    
Max Wind Speed 17 mph    
Max Gust Speed 25 mph    
Visibility 10 miles    
Events Thunderstorm    
T = Trace of Precipitation, MM = Missing Value Source: NWS Daily Summary

Daily Weather History Graph

Daily Weather History Graph

Search for Another Location

Airport or City:

Trip Planner

Search our weather history database for the weather conditions in past years. The results will help you decide how hot, cold, wet, or windy it might be!

Date:

Astronomy

Jul. 27, 2013 Rise Set
Actual Time 5:44 AM PDT 7:44 PM PDT
Civil Twilight 5:16 AM PDT 8:12 PM PDT
Nautical Twilight 4:42 AM PDT 8:46 PM PDT
Astronomical Twilight 4:06 AM PDT 9:22 PM PDT
Moon 10:52 PM PDT (7/27) 11:13 AM PDT (7/27)
Length of Visible Light 14h 55m
Length of Day
13h 59m
Waning Gibbous, 70% of the Moon is Illuminated
Jul 27
Waning Gibbous
Jul 29
Last Quarter
Aug 6
New
Aug 14
First Quarter
Aug 20
Full

Hourly Weather History & Observations

Time (PDT) Temp. Heat Index Dew Point Humidity Pressure Visibility Wind Dir Wind Speed Gust Speed Precip Events Conditions
12:56 AM 93.9 °F 93.6 °F 60.1 °F 32% 29.80 in 10.0 mi West 6.9 mph - N/A   Partly Cloudy
1:56 AM 95.0 °F 95.6 °F 62.1 °F 33% 29.81 in 10.0 mi SW 8.1 mph - N/A   Mostly Cloudy
2:56 AM 91.9 °F 92.5 °F 62.1 °F 37% 29.81 in 10.0 mi East 5.8 mph - N/A   Mostly Cloudy
3:56 AM 90.0 °F 91.7 °F 64.9 °F 43% 29.81 in 10.0 mi Calm Calm - N/A   Scattered Clouds
4:56 AM 86.0 °F 87.6 °F 64.9 °F 49% 29.84 in 10.0 mi North 16.1 mph 25.3 mph N/A   Clear
5:56 AM 84.9 °F 87.1 °F 66.0 °F 53% 29.85 in 10.0 mi North 15.0 mph - N/A   Overcast
6:56 AM 86.0 °F 88.2 °F 66.0 °F 51% 29.85 in 10.0 mi NNW 13.8 mph - N/A   Clear
7:56 AM 91.9 °F 94.1 °F 64.9 °F 41% 29.84 in 10.0 mi North 9.2 mph - N/A   Clear
8:56 AM 93.0 °F 95.9 °F 66.0 °F 41% 29.83 in 10.0 mi ENE 5.8 mph - N/A   Clear
9:56 AM 96.1 °F 98.3 °F 64.0 °F 35% 29.82 in 10.0 mi NE 5.8 mph - N/A   Clear
10:56 AM 98.1 °F 100.7 °F 64.0 °F 33% 29.81 in 10.0 mi Calm Calm - N/A   Clear
11:56 AM 100.0 °F 103.0 °F 64.0 °F 31% 29.77 in 10.0 mi Calm Calm - N/A   Clear
12:56 PM 102.0 °F 104.6 °F 63.0 °F 28% 29.74 in 10.0 mi Variable 4.6 mph - N/A   Scattered Clouds
1:56 PM 106.0 °F 107.1 °F 60.1 °F 22% 29.70 in 10.0 mi SSW 9.2 mph - N/A   Scattered Clouds
2:56 PM 106.0 °F 106.4 °F 59.0 °F 21% 29.67 in 10.0 mi WSW 10.4 mph - N/A   Scattered Clouds
3:56 PM 102.9 °F 105.5 °F 63.0 °F 27% 29.64 in 10.0 mi North 16.1 mph - N/A   Overcast
4:45 PM 100.4 °F 104.9 °F 66.2 °F 33% 29.76 in 10.0 mi North 11.5 mph - N/A Thunderstorm Thunderstorm
4:56 PM 100.0 °F 103.0 °F 64.0 °F 31% 29.66 in 10.0 mi NNE 8.1 mph - N/A Thunderstorm Thunderstorm
5:13 PM 102.2 °F 105.5 °F 64.4 °F 29% 29.76 in 10.0 mi North 17.3 mph 23.0 mph N/A   Mostly Cloudy
5:28 PM 98.6 °F 102.8 °F 66.2 °F 35% 29.76 in 10.0 mi NNE 12.7 mph 24.2 mph N/A   Scattered Clouds
5:56 PM 96.1 °F 99.9 °F 66.9 °F 38% 29.65 in 10.0 mi NE 12.7 mph - N/A   Partly Cloudy
6:56 PM 98.1 °F 100.7 °F 64.0 °F 33% 29.65 in 10.0 mi NNW 4.6 mph - N/A   Clear
7:56 PM 97.0 °F 98.3 °F 63.0 °F 32% 29.65 in 10.0 mi NW 5.8 mph - N/A   Scattered Clouds
8:56 PM 97.0 °F 97.8 °F 62.1 °F 31% 29.66 in 10.0 mi SSE 4.6 mph - N/A   Scattered Clouds
9:56 PM 96.1 °F 99.3 °F 66.0 °F 37% 29.66 in 10.0 mi ESE 5.8 mph - N/A   Partly Cloudy
10:23 PM 96.8 °F 99.0 °F 64.4 °F 34% 29.77 in 10.0 mi Calm Calm - N/A Thunderstorm Scattered Clouds
10:56 PM 95.0 °F 97.4 °F 64.9 °F 37% 29.66 in 10.0 mi SSW 4.6 mph - N/A Thunderstorm Mostly Cloudy
11:29 PM 93.2 °F 96.2 °F 66.2 °F 41% 29.77 in 10.0 mi ESE 8.1 mph - N/A   Scattered Clouds
11:56 PM 90.0 °F 92.8 °F 66.9 °F 46% 29.67 in 10.0 mi ESE 8.1 mph - N/A   Clear